Date String (YYYY-MM-DD hh:mm:ss) UTC,Instrument flags,Ambient pressure (hPa),Sample flow (lpm),Bypass flow (lpm),Sample temperature (°C),Ambient temperature (°C),ASC tube jacket temperature (°C),LED temperature (°C),Box temperature (°C),Sample RH (%),Span deviation,Mass concentration (μg/m³),Mass concentration (μg/m³),Mass concentration (μg/m³)
DateTimeUTC,F1_M11,P_M11,Q1_M11,Q2_M11,T1_M11,T2_M11,T3_M11,T4_M11,T5_M11,U1_M11,ZSPAN_M11,X2_M11,X0_M11,X1_M11
2022-01-13 20:00:00,,0828.4,5.01,0.00,30.9,30.1,00.0,39.8,32.6,08.1,0000.0,0001.40,0004.26,0001.11
2022-01-13 20:01:00,,0828.4,5.00,0.00,30.9,30.2,00.0,39.8,32.6,08.0,0000.0,0001.44,0004.40,0001.12
2022-01-13 20:02:00,,0828.4,5.01,0.00,30.9,30.2,00.0,39.8,32.6,08.6,0000.0,0001.46,0003.52,0001.14
2022-01-13 20:03:00,,0828.3,4.99,0.00,30.9,30.2,00.0,39.8,32.6,08.4,0000.0,0001.52,0003.09,0001.19
2022-01-13 20:04:00,,0828.4,5.00,0.00,30.9,30.2,00.0,39.8,32.6,08.4,0000.0,0001.60,0004.26,0001.26
2022-01-13 20:05:00,,0828.3,5.01,0.00,30.9,30.2,00.0,39.8,32.6,08.4,0000.0,0001.64,0004.38,0001.28
2022-01-13 20:06:00,,0828.3,4.99,0.00,31.0,30.2,00.0,39.8,32.6,08.2,0000.0,0001.64,0004.61,0001.28
2022-01-13 20:07:00,,0828.3,5.01,0.00,31.0,30.2,00.0,39.9,32.6,08.1,0000.0,0001.65,0004.30,0001.28
2022-01-13 20:08:00,,0828.3,5.01,0.00,31.0,30.2,00.0,39.9,32.6,08.5,0000.0,0001.66,0004.02,0001.26
2022-01-13 20:09:00,,0828.3,4.98,0.00,31.0,30.2,00.0,39.9,32.7,08.2,0000.0,0001.69,0005.21,0001.24
2022-01-13 20:10:00,,0828.3,5.01,0.00,31.0,30.2,00.0,39.9,32.7,08.3,0000.0,0001.70,0006.92,0001.23
2022-01-13 20:11:00,,0828.2,4.99,0.00,31.0,30.2,00.0,39.9,32.7,08.0,0000.0,0001.71,0007.02,0001.21
2022-01-13 20:12:00,,0828.2,5.00,0.00,31.0,30.2,00.0,39.9,32.7,08.1,0000.0,0001.68,0007.09,0001.19
2022-01-13 20:13:00,,0828.3,5.00,0.00,31.0,30.3,00.0,39.9,32.7,08.3,0000.0,0001.70,0007.19,0001.15
2022-01-13 20:14:00,,0828.4,4.98,0.00,31.0,30.3,00.0,39.9,32.7,08.8,0000.0,0001.62,0007.04,0001.08
2022-01-13 20:15:00,,0828.1,5.01,0.00,31.1,30.3,00.0,39.9,32.7,08.2,0000.0,0001.63,0006.11,0001.01
2022-01-13 20:16:00,,0828.1,5.00,0.00,31.1,30.3,00.0,40.0,32.8,07.9,0000.0,0001.65,0006.70,0001.01
2022-01-13 20:17:00,,0828.1,5.00,0.00,31.1,30.2,00.0,40.0,32.8,07.8,0000.0,0001.68,0007.07,0001.02
2022-01-13 20:18:00,,0828.1,4.99,0.00,31.1,30.0,00.0,40.0,32.7,08.3,0000.0,0001.70,0007.15,0001.03
2022-01-13 20:19:00,,0828.0,5.00,0.00,31.1,29.9,00.0,40.0,32.7,08.1,0000.0,0001.77,0007.28,0001.07
2022-01-13 20:20:00,,0828.0,5.00,0.00,31.1,29.8,00.0,40.0,32.7,08.1,0000.0,0001.85,0006.32,0001.11
2022-01-13 20:21:00,,0828.1,5.00,0.00,31.1,28.4,00.0,40.0,32.4,08.2,0000.0,0001.94,0005.43,0001.16
2022-01-13 20:22:00,,0827.9,4.99,0.00,30.9,26.3,00.0,39.9,31.8,08.1,0000.0,0002.05,0005.87,0001.22
2022-01-13 20:23:00,,0828.0,5.00,0.00,30.7,25.9,00.0,39.9,31.7,08.0,0000.0,0002.21,0006.02,0001.34
2022-01-13 20:24:00,,0827.9,5.00,0.00,30.5,26.3,00.0,39.8,31.7,08.6,0000.0,0002.31,0006.15,0001.45
2022-01-13 20:25:00,,0828.0,4.99,0.00,30.4,26.9,00.0,39.7,31.7,08.6,0000.0,0002.45,0006.52,0001.61
2022-01-13 20:26:00,,0827.9,5.01,0.00,30.4,27.4,00.0,39.6,31.7,08.5,0000.0,0002.64,0006.63,0001.84
2022-01-13 20:27:00,,0827.9,5.02,0.00,30.4,27.8,00.0,39.5,31.8,08.5,0000.0,0002.81,0006.21,0002.04
2022-01-13 20:28:00,,0827.8,4.99,0.00,30.3,28.2,00.0,39.5,31.9,08.1,0000.0,0003.10,0006.31,0002.39
2022-01-13 20:29:00,,0827.8,4.99,0.00,30.3,28.4,00.0,39.5,31.9,08.6,0000.0,0003.36,0006.81,0002.75
2022-01-13 20:30:00,,0827.8,5.01,0.00,30.3,28.7,00.0,39.4,31.9,08.1,0000.0,0003.64,0007.84,0003.18
2022-01-13 20:31:00,,0827.8,5.00,0.00,30.3,28.8,00.0,39.4,32.0,08.1,0000.0,0003.85,0008.29,0003.40
2022-01-13 20:32:00,,0827.8,4.99,0.00,30.4,29.0,00.0,39.4,32.0,08.2,0000.0,0003.99,0008.08,0003.54
2022-01-13 20:33:00,,0827.7,5.01,0.00,30.4,29.1,00.0,39.4,32.0,08.2,0000.0,0004.11,0008.18,0003.69
2022-01-13 20:34:00,,0827.7,4.99,0.00,30.4,29.2,00.0,39.4,32.1,08.5,0000.0,0004.25,0008.69,0003.81
2022-01-13 20:35:00,,0827.7,5.00,0.00,30.4,29.3,00.0,39.4,32.1,08.4,0000.0,0004.44,0008.96,0003.96
2022-01-13 20:36:00,,0827.7,4.99,0.00,30.4,29.4,00.0,39.4,32.1,08.6,0000.0,0004.60,0009.10,0004.09
2022-01-13 20:37:00,,0827.7,5.01,0.00,30.4,29.4,00.0,39.4,32.2,08.6,0000.0,0004.71,0009.71,0004.19
2022-01-13 20:38:00,,0827.7,4.99,0.00,30.5,29.5,00.0,39.4,32.2,08.3,0000.0,0004.89,0010.36,0004.34
2022-01-13 20:39:00,,0827.7,5.01,0.00,30.5,29.5,00.0,39.4,32.2,08.0,0000.0,0005.07,0010.46,0004.50
2022-01-13 20:40:00,,0827.7,5.00,0.00,30.5,29.6,00.0,39.4,32.2,07.9,0000.0,0005.21,0010.67,0004.68
2022-01-13 20:41:00,,0827.7,5.00,0.00,30.5,29.6,00.0,39.4,32.3,07.8,0000.0,0005.33,0010.26,0004.81
2022-01-13 20:42:00,,0827.7,5.01,0.00,30.5,29.6,00.0,39.5,32.3,07.9,0000.0,0005.59,0010.33,0005.06
2022-01-13 20:43:00,,0827.7,4.99,0.00,30.5,29.7,00.0,39.5,32.3,08.0,0000.0,0005.90,0011.21,0005.32
2022-01-13 20:44:00,,0827.6,4.98,0.00,30.6,29.7,00.0,39.5,32.3,07.9,0000.0,0006.25,0012.46,0005.65
2022-01-13 20:45:00,,0827.5,5.01,0.00,30.6,29.7,00.0,39.5,32.3,08.1,0000.0,0006.61,0013.20,0006.02
2022-01-13 20:46:00,,0827.5,5.01,0.00,30.6,29.8,00.0,39.5,32.3,08.0,0000.0,0006.90,0013.97,0006.31
2022-01-13 20:47:00,,0827.5,4.99,0.00,30.6,29.8,00.0,39.5,32.3,08.6,0000.0,0007.13,0014.18,0006.54
2022-01-13 20:48:00,,0827.5,5.00,0.00,30.6,29.8,00.0,39.5,32.4,08.9,0000.0,0007.25,0013.95,0006.66
2022-01-13 20:49:00,,0827.5,5.00,0.00,30.7,29.8,00.0,39.6,32.4,08.1,0000.0,0007.52,0013.67,0006.92
2022-01-13 20:50:00,,0827.5,5.01,0.00,30.7,29.9,00.0,39.6,32.4,08.2,0000.0,0007.72,0013.76,0007.13
2022-01-13 20:51:00,,0827.5,5.00,0.00,30.7,29.9,00.0,39.6,32.4,08.1,0000.0,0007.89,0014.22,0007.29
2022-01-13 20:52:00,,0827.5,4.99,0.00,30.7,29.9,00.0,39.6,32.5,08.1,0000.0,0008.08,0014.86,0007.45
2022-01-13 20:53:00,,0827.5,5.00,0.00,30.7,29.9,00.0,39.6,32.5,08.1,0000.0,0008.16,0015.39,0007.53
2022-01-13 20:54:00,,0827.5,5.01,0.00,30.7,29.9,00.0,39.6,32.5,08.0,0000.0,0008.21,0014.99,0007.62
2022-01-13 20:55:00,,0827.4,5.00,0.00,30.8,29.8,00.0,39.7,32.5,08.0,0000.0,0008.30,0014.77,0007.69
2022-01-13 20:56:00,,0827.4,4.99,0.00,30.7,28.0,00.0,39.6,32.0,08.2,0000.0,0008.32,0014.40,0007.70
2022-01-13 20:57:00,,0827.4,5.00,0.00,30.5,26.1,00.0,39.6,31.5,08.1,0000.0,0008.35,0013.80,0007.72
2022-01-13 20:58:00,,0827.4,5.00,0.00,30.3,26.0,00.0,39.5,31.4,08.0,0000.0,0008.40,0014.07,0007.78
2022-01-13 20:59:00,,0827.4,5.01,0.00,30.2,26.5,00.0,39.5,31.5,08.3,0000.0,0008.55,0015.11,0007.94
